Location: Newark
(49.2191°N, 12.6671°E)
Time: 18:01:51
(UTC+00:00)

Transit 4A - Pass Details

Date: 27 January 2020
Orbit: 872 x 973 km, 66.8° (Epoch: 22 February)

Event Time Altitude Azimuth Distance (km) Brightness Sun altitude
Rises 04:37:15 0° 186° (S) 3,544 10.9 -21.2°
Reaches altitude 10° 04:39:57 10° 178° (S) 2,590 10.3 -20.7°
Maximum altitude 04:45:22 37° 113° (ESE) 1,374 9.4 -19.9°
Drops below altitude 10° 04:50:42 10° 49° (NE) 2,551 10.8 -19.0°
Sets 04:53:20 0° 41° (NE) 3,485 11.4 -18.6°
